Skip Page Navigation
NASA JPL Caltech
NASA Logo - Jet Propulsion Laboratory + View the NASA Portal
+ Center for Near-Earth Object Studies
JPL Home Earth Solar System Stars & Galaxies Technology
JPL Solar System Dynamics
BODIES ORBITS EPHEMERIDES TOOLS PHYSICAL DATA DISCOVERY FAQ SITE MAP
IMPORTANT: The SSD Announcement email list is now available. Major changes are coming in the near future, including possible hostname and/or URL changes. To be notified of such changes, subscribe to this email list.

Please visit this page for more details.


JPL Small-Body Database Browser
Search: [ help ]  
437517 (2013 YY92)
Classification: Main-belt Asteroid          SPK-ID: 2437517
Ephemeris | Orbit Diagram | Orbital Elements | Mission Design | Physical Parameters | Discovery Circumstances ]

[ show orbit diagram ]
Orbital Elements at Epoch 2458600.5 (2019-Apr-27.0) TDB
Reference: JPL 13 (heliocentric ecliptic J2000)
 Element Value Uncertainty (1-sigma)   Units 
e .08213646529005568 1.2394e-07  
a 2.84274467475531 6.3109e-08 au
q 2.60925167544878 3.6979e-07 au
i 5.944137148942539 1.05e-05 deg
node 21.52113644680164 7.9164e-05 deg
peri 3.433339544469327 9.6653e-05 deg
M 115.8297892438639 5.1235e-05 deg
tp 2458037.221760154064
(2017-Oct-10.72176015)
0.00025051 TDB
period 1750.673705514655
4.79
5.8297e-05
1.596e-07
d
yr
n .2056351214198244 6.8476e-09 deg/d
Q 3.07623767406184 6.8292e-08 au
  Orbit Determination Parameters
   # obs. used (total)      121  
   data-arc span      5524 days (15.12 yr)  
   first obs. used      2003-12-25  
   last obs. used      2019-02-08  
   planetary ephem.      DE431  
   SB-pert. ephem.      SB431-N16  
   condition code      0  
   norm. resid. RMS      .63918  
   source      ORB  
   producer      Otto Matic  
   solution date      2019-Jul-13 17:40:34  

Additional Information
 Earth MOID = 1.61213 au 
 Jupiter MOID = 2.32995 au 
 T_jup = 3.296 
[ show covariance matrix ]

Ephemeris | Orbit Diagram | Orbital Elements | Mission Design | Physical Parameters | Discovery Circumstances ]

Physical Parameter Table
Parameter Symbol Value Units Sigma Reference Notes
absolute magnitude H 16.8   n/a MPO437697  

437517 (2013 YY92)          Discovered 2012-Oct-11 by Mt. Lemmon Survey at Mount Lemmon
Reference: Last Updated: 2015-06-04
Ephemeris | Orbit Diagram | Orbital Elements | Mission Design | Physical Parameters | Discovery Circumstances ]
ABOUT SSD CREDITS/AWARDS PRIVACY/COPYRIGHT GLOSSARY LINKS
FirstGov 2019-Dec-05 20:16 UT
(server date/time)  
NASA Home Page
Site Manager:   Ryan S. Park
Webmaster  Alan B. Chamberlin